owner,sensor,date,latitude,longitude,vertical_datum,wind_speed,wind_to_direction,wind_speed_of_gust,qcFlag 
TCOON,ioos:station:TCOON:006:1,2009-06-01T00:00:00Z,27.8217,-97.2040,0.0,5.9,123.0,7.5,'11111222,11111222,11111222' 
TCOON,ioos:station:TCOON:006:1,2009-06-01T02:00:00Z,27.8217,-97.2040,0.0,3.9,101.0,6.7,'11111222,11111222,11111222' 
TCOON,ioos:station:TCOON:006:1,2009-06-01T03:00:00Z,27.8217,-97.2040,0.0,5.1,116.0,6.5,'11111222,11111222,11111222' 
TCOON,ioos:station:TCOON:006:1,2009-06-01T04:00:00Z,27.8217,-97.2040,0.0,5.6,128.0,7.1,'11111222,11111222,11111222' 
TCOON,ioos:station:TCOON:006:1,2009-06-01T05:00:00Z,27.8217,-97.2040,0.0,5.2,150.0,6.8,'11111222,11111222,11111222' 
TCOON,ioos:station:TCOON:006:1,2009-06-01T06:00:00Z,27.8217,-97.2040,0.0,5.1,136.0,7.4,'11111222,11111222,11111222' 
TCOON,ioos:station:TCOON:006:1,2009-06-01T07:00:00Z,27.8217,-97.2040,0.0,5.8,128.0,7.7,'11111222,11111222,11111222' 
TCOON,ioos:station:TCOON:006:1,2009-06-01T08:00:00Z,27.8217,-97.2040,0.0,5.1,145.0,6.2,'11111222,11111222,11111222' 
TCOON,ioos:station:TCOON:006:1,2009-06-01T09:00:00Z,27.8217,-97.2040,0.0,5.2,132.0,6.7,'11111222,11111222,11111222' 
TCOON,ioos:station:TCOON:006:1,2009-06-01T10:00:00Z,27.8217,-97.2040,0.0,5.2,126.0,7.8,'11111222,11111222,11111222' 
TCOON,ioos:station:TCOON:006:1,2009-06-01T11:00:00Z,27.8217,-97.2040,0.0,4.8,121.0,5.9,'11111222,11111222,11111222' 
TCOON,ioos:station:TCOON:006:1,2009-06-01T12:00:00Z,27.8217,-97.2040,0.0,4.8,111.0,7.2,'11111222,11111222,11111222' 
TCOON,ioos:station:TCOON:006:1,2009-06-01T13:00:00Z,27.8217,-97.2040,0.0,5.5,119.0,7.0,'11111222,11111222,11111222' 
TCOON,ioos:station:TCOON:006:1,2009-06-01T14:00:00Z,27.8217,-97.2040,0.0,5.3,125.0,7.6,'11111222,11111222,11111222' 
TCOON,ioos:station:TCOON:006:1,2009-06-01T15:00:00Z,27.8217,-97.2040,0.0,4.2,140.0,6.0,'11111222,11111222,11111222' 
TCOON,ioos:station:TCOON:006:1,2009-06-01T16:00:00Z,27.8217,-97.2040,0.0,4.0,115.0,5.1,'11111222,11111222,11111222' 
TCOON,ioos:station:TCOON:006:1,2009-06-01T17:00:00Z,27.8217,-97.2040,0.0,3.3,108.0,5.2,'11111222,11111222,11111222' 
TCOON,ioos:station:TCOON:006:1,2009-06-01T18:00:00Z,27.8217,-97.2040,0.0,5.3,112.0,6.5,'11111222,11111222,11111222' 
TCOON,ioos:station:TCOON:006:1,2009-06-01T19:00:00Z,27.8217,-97.2040,0.0,5.0,96.0,7.4,'11111222,11111222,11111222' 
TCOON,ioos:station:TCOON:006:1,2009-06-01T20:00:00Z,27.8217,-97.2040,0.0,5.9,92.0,8.9,'11111222,11111222,11111222' 
TCOON,ioos:station:TCOON:006:1,2009-06-01T21:00:00Z,27.8217,-97.2040,0.0,5.7,99.0,9.4,'11111222,11111222,11111222' 
TCOON,ioos:station:TCOON:006:1,2009-06-01T22:00:00Z,27.8217,-97.2040,0.0,6.3,105.0,7.9,'11111222,11111222,11111222' 
TCOON,ioos:station:TCOON:006:1,2009-06-01T23:00:00Z,27.8217,-97.2040,0.0,6.0,113.0,8.9,'11111222,11111222,11111222' 
TCOON,ioos:station:TCOON:006:1,2009-06-02T00:00:00Z,27.8217,-97.2040,0.0,6.9,121.0,8.8,'11111222,11111222,11111222' 
TCOON,ioos:station:TCOON:006:1,2009-06-02T01:00:00Z,27.8217,-97.2040,0.0,7.3,120.0,9.2,'11111222,11111222,11111222' 
TCOON,ioos:station:TCOON:006:1,2009-06-02T02:00:00Z,27.8217,-97.2040,0.0,7.1,117.0,9.6,'11111222,11111222,11111222' 
TCOON,ioos:station:TCOON:006:1,2009-06-02T03:00:00Z,27.8217,-97.2040,0.0,7.2,123.0,9.0,'11111222,11111222,11111222' 
TCOON,ioos:station:TCOON:006:1,2009-06-02T04:00:00Z,27.8217,-97.2040,0.0,4.2,108.0,7.3,'11111222,11111222,11111222' 
TCOON,ioos:station:TCOON:006:1,2009-06-02T05:00:00Z,27.8217,-97.2040,0.0,3.1,111.0,5.5,'11111222,11111222,11111222' 
TCOON,ioos:station:TCOON:006:1,2009-06-02T06:00:00Z,27.8217,-97.2040,0.0,4.8,118.0,7.6,'11111222,11111222,11111222' 
TCOON,ioos:station:TCOON:006:1,2009-06-02T07:00:00Z,27.8217,-97.2040,0.0,4.0,136.0,6.0,'11111222,11111222,11111222' 
TCOON,ioos:station:TCOON:006:1,2009-06-02T08:00:00Z,27.8217,-97.2040,0.0,3.6,112.0,5.8,'11111222,11111222,11111222' 
TCOON,ioos:station:TCOON:006:1,2009-06-02T09:00:00Z,27.8217,-97.2040,0.0,3.7,123.0,6.2,'11111222,11111222,11111222' 
TCOON,ioos:station:TCOON:006:1,2009-06-02T10:00:00Z,27.8217,-97.2040,0.0,4.2,127.0,6.1,'11111222,11111222,11111222' 
TCOON,ioos:station:TCOON:006:1,2009-06-02T11:00:00Z,27.8217,-97.2040,0.0,3.5,113.0,4.7,'11111222,11111222,11111222' 
TCOON,ioos:station:TCOON:006:1,2009-06-02T12:00:00Z,27.8217,-97.2040,0.0,3.5,133.0,5.9,'11111222,11111222,11111222' 
TCOON,ioos:station:TCOON:006:1,2009-06-02T13:00:00Z,27.8217,-97.2040,0.0,3.4,120.0,6.0,'11111222,11111222,11111222' 
TCOON,ioos:station:TCOON:006:1,2009-06-02T14:00:00Z,27.8217,-97.2040,0.0,4.0,120.0,7.0,'11111222,11111222,11111222' 
TCOON,ioos:station:TCOON:006:1,2009-06-02T15:00:00Z,27.8217,-97.2040,0.0,4.0,126.0,5.9,'11111222,11111222,11111222' 
TCOON,ioos:station:TCOON:006:1,2009-06-02T16:00:00Z,27.8217,-97.2040,0.0,4.6,145.0,6.3,'11111222,11111222,11111222' 
TCOON,ioos:station:TCOON:006:1,2009-06-02T17:00:00Z,27.8217,-97.2040,0.0,3.5,135.0,5.3,'11111222,11111222,11111222' 
TCOON,ioos:station:TCOON:006:1,2009-06-02T18:00:00Z,27.8217,-97.2040,0.0,2.8,127.0,4.8,'11111222,11111222,11111222' 
TCOON,ioos:station:TCOON:006:1,2009-06-02T19:00:00Z,27.8217,-97.2040,0.0,3.1,119.0,5.8,'11111222,11111222,11111222' 
TCOON,ioos:station:TCOON:006:1,2009-06-02T20:00:00Z,27.8217,-97.2040,0.0,3.7,108.0,5.9,'11111222,11111222,11111222' 
TCOON,ioos:station:TCOON:006:1,2009-06-02T21:00:00Z,27.8217,-97.2040,0.0,4.6,107.0,7.6,'11111222,11111222,11111222' 
TCOON,ioos:station:TCOON:006:1,2009-06-02T22:00:00Z,27.8217,-97.2040,0.0,3.6,103.0,6.5,'11111222,11111222,11111222' 
TCOON,ioos:station:TCOON:006:1,2009-06-02T23:00:00Z,27.8217,-97.2040,0.0,3.9,121.0,6.0,'11111222,11111222,11111222' 
TCOON,ioos:station:TCOON:006:1,2009-06-03T00:00:00Z,27.8217,-97.2040,0.0,4.6,134.0,7.3,'11111222,11111222,11111222' 
TCOON,ioos:station:TCOON:006:1,2009-06-03T01:00:00Z,27.8217,-97.2040,0.0,2.6,107.0,5.5,'11111222,11111222,11111222' 
TCOON,ioos:station:TCOON:006:1,2009-06-03T02:00:00Z,27.8217,-97.2040,0.0,3.4,117.0,5.8,'11111222,11111222,11111222' 
TCOON,ioos:station:TCOON:006:1,2009-06-03T03:00:00Z,27.8217,-97.2040,0.0,4.0,104.0,5.7,'11111222,11111222,11111222' 
TCOON,ioos:station:TCOON:006:1,2009-06-03T04:00:00Z,27.8217,-97.2040,0.0,3.1,98.0,5.6,'11111222,11111222,11111222' 
TCOON,ioos:station:TCOON:006:1,2009-06-03T05:00:00Z,27.8217,-97.2040,0.0,4.3,141.0,7.2,'11111222,11111222,11111222' 
TCOON,ioos:station:TCOON:006:1,2009-06-03T06:00:00Z,27.8217,-97.2040,0.0,5.1,145.0,6.4,'11111222,11111222,11111222' 
TCOON,ioos:station:TCOON:006:1,2009-06-03T07:00:00Z,27.8217,-97.2040,0.0,4.6,167.0,5.9,'11111222,11111222,11111222' 
TCOON,ioos:station:TCOON:006:1,2009-06-03T08:00:00Z,27.8217,-97.2040,0.0,4.4,149.0,5.5,'11111222,11111222,11111222' 
TCOON,ioos:station:TCOON:006:1,2009-06-03T09:00:00Z,27.8217,-97.2040,0.0,4.4,160.0,6.0,'11111222,11111222,11111222' 
TCOON,ioos:station:TCOON:006:1,2009-06-03T10:00:00Z,27.8217,-97.2040,0.0,2.5,211.0,3.7,'11111222,11111222,11111222' 
TCOON,ioos:station:TCOON:006:1,2009-06-03T11:00:00Z,27.8217,-97.2040,0.0,2.6,336.0,5.2,'11111222,11111222,11111222' 
TCOON,ioos:station:TCOON:006:1,2009-06-03T12:00:00Z,27.8217,-97.2040,0.0,1.3,320.0,2.6,'11111222,11111222,11111222' 
TCOON,ioos:station:TCOON:006:1,2009-06-03T13:00:00Z,27.8217,-97.2040,0.0,1.8,217.0,2.5,'11111222,11111222,11111222' 
TCOON,ioos:station:TCOON:006:1,2009-06-03T14:00:00Z,27.8217,-97.2040,0.0,2.0,201.0,2.6,'11111222,11111222,11111222' 
TCOON,ioos:station:TCOON:006:1,2009-06-03T15:00:00Z,27.8217,-97.2040,0.0,2.1,259.0,2.8,'11111222,11111222,11111222' 
TCOON,ioos:station:TCOON:006:1,2009-06-03T16:00:00Z,27.8217,-97.2040,0.0,2.6,246.0,3.1,'11111222,11111222,11111222' 
TCOON,ioos:station:TCOON:006:1,2009-06-03T17:00:00Z,27.8217,-97.2040,0.0,2.3,135.0,3.7,'11111222,11111222,11111222' 
TCOON,ioos:station:TCOON:006:1,2009-06-03T18:00:00Z,27.8217,-97.2040,0.0,4.1,155.0,5.1,'11111222,11111222,11111222' 
TCOON,ioos:station:TCOON:006:1,2009-06-03T19:00:00Z,27.8217,-97.2040,0.0,5.3,142.0,7.4,'11111222,11111222,11111222' 
TCOON,ioos:station:TCOON:006:1,2009-06-03T20:00:00Z,27.8217,-97.2040,0.0,5.7,144.0,7.5,'11111222,11111222,11111222' 
TCOON,ioos:station:TCOON:006:1,2009-06-03T21:00:00Z,27.8217,-97.2040,0.0,5.2,132.0,7.3,'11111222,11111222,11111222' 
TCOON,ioos:station:TCOON:006:1,2009-06-03T22:00:00Z,27.8217,-97.2040,0.0,4.2,103.0,6.0,'11111222,11111222,11111222' 
TCOON,ioos:station:TCOON:006:1,2009-06-03T23:00:00Z,27.8217,-97.2040,0.0,3.7,134.0,5.5,'11111222,11111222,11111222' 
TCOON,ioos:station:TCOON:006:1,2009-06-04T00:00:00Z,27.8217,-97.2040,0.0,3.5,132.0,5.7,'11111222,11111222,11111222' 
TCOON,ioos:station:TCOON:006:1,2009-06-04T01:00:00Z,27.8217,-97.2040,0.0,7.8,237.0,9.9,'11111222,11111222,11111222' 
TCOON,ioos:station:TCOON:006:1,2009-06-04T02:00:00Z,27.8217,-97.2040,0.0,5.0,202.0,6.9,'11111222,11111222,11111222' 
TCOON,ioos:station:TCOON:006:1,2009-06-04T03:00:00Z,27.8217,-97.2040,0.0,1.8,291.0,4.2,'11111222,11111222,11111222' 
TCOON,ioos:station:TCOON:006:1,2009-06-04T04:00:00Z,27.8217,-97.2040,0.0,1.5,317.0,2.8,'11111222,11111222,11111222' 
TCOON,ioos:station:TCOON:006:1,2009-06-04T05:00:00Z,27.8217,-97.2040,0.0,0.2,17.0,1.6,'11111222,11111222,11111222' 
TCOON,ioos:station:TCOON:006:1,2009-06-04T06:00:00Z,27.8217,-97.2040,0.0,1.1,188.0,1.3,'11111222,11111222,11111222' 
TCOON,ioos:station:TCOON:006:1,2009-06-04T07:00:00Z,27.8217,-97.2040,0.0,3.6,231.0,4.3,'11111222,11111222,11111222' 
TCOON,ioos:station:TCOON:006:1,2009-06-04T08:00:00Z,27.8217,-97.2040,0.0,2.8,242.0,3.1,'11111222,11111222,11111222' 
TCOON,ioos:station:TCOON:006:1,2009-06-04T09:00:00Z,27.8217,-97.2040,0.0,1.8,338.0,3.1,'11111222,11111222,11111222' 
TCOON,ioos:station:TCOON:006:1,2009-06-04T10:00:00Z,27.8217,-97.2040,0.0,1.9,333.0,3.8,'11111222,11111222,11111222' 
TCOON,ioos:station:TCOON:006:1,2009-06-04T11:00:00Z,27.8217,-97.2040,0.0,1.6,332.0,2.4,'11111222,11111222,11111222' 
TCOON,ioos:station:TCOON:006:1,2009-06-04T12:00:00Z,27.8217,-97.2040,0.0,1.3,5.0,3.3,'11111222,11111222,11111222' 
TCOON,ioos:station:TCOON:006:1,2009-06-04T13:00:00Z,27.8217,-97.2040,0.0,1.3,13.0,4.1,'11111222,11111222,11111222' 
TCOON,ioos:station:TCOON:006:1,2009-06-04T14:00:00Z,27.8217,-97.2040,0.0,2.1,14.0,4.3,'11111222,11111222,11111222' 
TCOON,ioos:station:TCOON:006:1,2009-06-04T15:00:00Z,27.8217,-97.2040,0.0,3.3,35.0,6.4,'11111222,11111222,11111222' 
TCOON,ioos:station:TCOON:006:1,2009-06-04T16:00:00Z,27.8217,-97.2040,0.0,5.7,76.0,7.1,'11111222,11111222,11111222' 
TCOON,ioos:station:TCOON:006:1,2009-06-04T17:00:00Z,27.8217,-97.2040,0.0,4.0,70.0,6.3,'11111222,11111222,11111222' 
TCOON,ioos:station:TCOON:006:1,2009-06-04T18:00:00Z,27.8217,-97.2040,0.0,2.6,77.0,4.0,'11111222,11111222,11111222' 
TCOON,ioos:station:TCOON:006:1,2009-06-04T19:00:00Z,27.8217,-97.2040,0.0,3.3,118.0,5.5,'11111222,11111222,11111222' 
TCOON,ioos:station:TCOON:006:1,2009-06-04T20:00:00Z,27.8217,-97.2040,0.0,2.6,105.0,4.8,'11111222,11111222,11111222' 
TCOON,ioos:station:TCOON:006:1,2009-06-04T21:00:00Z,27.8217,-97.2040,0.0,2.7,112.0,4.7,'11111222,11111222,11111222' 
TCOON,ioos:station:TCOON:006:1,2009-06-04T22:00:00Z,27.8217,-97.2040,0.0,2.5,132.0,4.1,'11111222,11111222,11111222' 
TCOON,ioos:station:TCOON:006:1,2009-06-04T23:00:00Z,27.8217,-97.2040,0.0,3.1,109.0,4.7,'11111222,11111222,11111222' 
TCOON,ioos:station:TCOON:006:1,2009-06-05T00:00:00Z,27.8217,-97.2040,0.0,3.7,145.0,4.7,'11111222,11111222,11111222' 
TCOON,ioos:station:TCOON:006:1,2009-06-05T01:00:00Z,27.8217,-97.2040,0.0,2.3,155.0,3.0,'11111222,11111222,11111222' 
TCOON,ioos:station:TCOON:006:1,2009-06-05T02:00:00Z,27.8217,-97.2040,0.0,1.7,200.0,2.2,'11111222,11111222,11111222' 
TCOON,ioos:station:TCOON:006:1,2009-06-05T03:00:00Z,27.8217,-97.2040,0.0,1.9,168.0,2.4,'11111222,11111222,11111222' 
TCOON,ioos:station:TCOON:006:1,2009-06-05T04:00:00Z,27.8217,-97.2040,0.0,0.6,166.0,1.6,'11111222,11111222,11111222' 
TCOON,ioos:station:TCOON:006:1,2009-06-05T05:00:00Z,27.8217,-97.2040,0.0,0.7,351.0,0.9,'11111222,11111222,11111222' 
TCOON,ioos:station:TCOON:006:1,2009-06-05T06:00:00Z,27.8217,-97.2040,0.0,2.0,339.0,2.6,'11111222,11111222,11111222' 
TCOON,ioos:station:TCOON:006:1,2009-06-05T07:00:00Z,27.8217,-97.2040,0.0,1.6,334.0,2.2,'11111222,11111222,11111222' 
TCOON,ioos:station:TCOON:006:1,2009-06-05T08:00:00Z,27.8217,-97.2040,0.0,1.5,332.0,2.0,'11111222,11111222,11111222' 
TCOON,ioos:station:TCOON:006:1,2009-06-05T09:00:00Z,27.8217,-97.2040,0.0,0.5,17.0,1.2,'11111222,11111222,11111222' 
TCOON,ioos:station:TCOON:006:1,2009-06-05T10:00:00Z,27.8217,-97.2040,0.0,0.8,355.0,1.8,'11111222,11111222,11111222' 
TCOON,ioos:station:TCOON:006:1,2009-06-05T11:00:00Z,27.8217,-97.2040,0.0,1.6,359.0,2.6,'11111222,11111222,11111222' 
TCOON,ioos:station:TCOON:006:1,2009-06-05T12:00:00Z,27.8217,-97.2040,0.0,1.6,21.0,2.7,'11111222,11111222,11111222' 
TCOON,ioos:station:TCOON:006:1,2009-06-05T13:00:00Z,27.8217,-97.2040,0.0,3.4,78.0,4.5,'11111222,11111222,11111222' 
TCOON,ioos:station:TCOON:006:1,2009-06-05T14:00:00Z,27.8217,-97.2040,0.0,3.4,78.0,4.9,'11111222,11111222,11111222' 
TCOON,ioos:station:TCOON:006:1,2009-06-05T15:00:00Z,27.8217,-97.2040,0.0,3.1,118.0,4.5,'11111222,11111222,11111222' 
TCOON,ioos:station:TCOON:006:1,2009-06-05T16:00:00Z,27.8217,-97.2040,0.0,3.2,85.0,5.1,'11111222,11111222,11111222' 
TCOON,ioos:station:TCOON:006:1,2009-06-05T17:00:00Z,27.8217,-97.2040,0.0,4.8,74.0,6.0,'11111222,11111222,11111222' 
TCOON,ioos:station:TCOON:006:1,2009-06-05T18:00:00Z,27.8217,-97.2040,0.0,4.4,95.0,6.3,'11111222,11111222,11111222' 
TCOON,ioos:station:TCOON:006:1,2009-06-05T19:00:00Z,27.8217,-97.2040,0.0,4.5,112.0,5.9,'11111222,11111222,11111222' 
TCOON,ioos:station:TCOON:006:1,2009-06-05T20:00:00Z,27.8217,-97.2040,0.0,3.7,89.0,6.3,'11111222,11111222,11111222' 
TCOON,ioos:station:TCOON:006:1,2009-06-05T21:00:00Z,27.8217,-97.2040,0.0,3.7,109.0,4.8,'11111222,11111222,11111222' 
TCOON,ioos:station:TCOON:006:1,2009-06-05T22:00:00Z,27.8217,-97.2040,0.0,4.1,96.0,7.0,'11111222,11111222,11111222' 
TCOON,ioos:station:TCOON:006:1,2009-06-05T23:00:00Z,27.8217,-97.2040,0.0,5.4,116.0,6.5,'11111222,11111222,11111222' 
TCOON,ioos:station:TCOON:006:1,2009-06-06T00:00:00Z,27.8217,-97.2040,0.0,4.7,124.0,6.7,'11111222,11111222,11111222' 
TCOON,ioos:station:TCOON:006:1,2009-06-06T01:00:00Z,27.8217,-97.2040,0.0,4.2,123.0,6.2,'11111222,11111222,11111222' 
TCOON,ioos:station:TCOON:006:1,2009-06-06T02:00:00Z,27.8217,-97.2040,0.0,5.0,118.0,6.0,'11111222,11111222,11111222' 
TCOON,ioos:station:TCOON:006:1,2009-06-06T03:00:00Z,27.8217,-97.2040,0.0,3.8,141.0,5.1,'11111222,11111222,11111222' 
TCOON,ioos:station:TCOON:006:1,2009-06-06T04:00:00Z,27.8217,-97.2040,0.0,3.8,134.0,5.0,'11111222,11111222,11111222' 
TCOON,ioos:station:TCOON:006:1,2009-06-06T05:00:00Z,27.8217,-97.2040,0.0,4.3,146.0,5.8,'11111222,11111222,11111222' 
TCOON,ioos:station:TCOON:006:1,2009-06-06T06:00:00Z,27.8217,-97.2040,0.0,4.6,143.0,6.1,'11111222,11111222,11111222' 
TCOON,ioos:station:TCOON:006:1,2009-06-06T07:00:00Z,27.8217,-97.2040,0.0,4.1,152.0,5.7,'11111222,11111222,11111222' 
TCOON,ioos:station:TCOON:006:1,2009-06-06T08:00:00Z,27.8217,-97.2040,0.0,4.5,157.0,6.1,'11111222,11111222,11111222' 
TCOON,ioos:station:TCOON:006:1,2009-06-06T09:00:00Z,27.8217,-97.2040,0.0,4.1,163.0,4.5,'11111222,11111222,11111222' 
TCOON,ioos:station:TCOON:006:1,2009-06-06T10:00:00Z,27.8217,-97.2040,0.0,3.3,155.0,4.8,'11111222,11111222,11111222' 
TCOON,ioos:station:TCOON:006:1,2009-06-06T11:00:00Z,27.8217,-97.2040,0.0,3.7,145.0,5.0,'11111222,11111222,11111222' 
TCOON,ioos:station:TCOON:006:1,2009-06-06T12:00:00Z,27.8217,-97.2040,0.0,4.8,130.0,5.8,'11111222,11111222,11111222' 
TCOON,ioos:station:TCOON:006:1,2009-06-06T13:00:00Z,27.8217,-97.2040,0.0,5.2,127.0,6.3,'11111222,11111222,11111222' 
TCOON,ioos:station:TCOON:006:1,2009-06-06T14:00:00Z,27.8217,-97.2040,0.0,3.8,122.0,6.4,'11111222,11111222,11111222' 
TCOON,ioos:station:TCOON:006:1,2009-06-06T15:00:00Z,27.8217,-97.2040,0.0,4.1,124.0,5.5,'11111222,11111222,11111222' 
TCOON,ioos:station:TCOON:006:1,2009-06-06T16:00:00Z,27.8217,-97.2040,0.0,5.8,118.0,6.9,'11111222,11111222,11111222' 
TCOON,ioos:station:TCOON:006:1,2009-06-06T17:00:00Z,27.8217,-97.2040,0.0,5.3,119.0,7.2,'11111222,11111222,11111222' 
TCOON,ioos:station:TCOON:006:1,2009-06-06T18:00:00Z,27.8217,-97.2040,0.0,6.6,126.0,8.0,'11111222,11111222,11111222' 
TCOON,ioos:station:TCOON:006:1,2009-06-06T19:00:00Z,27.8217,-97.2040,0.0,5.9,125.0,7.7,'11111222,11111222,11111222' 
TCOON,ioos:station:TCOON:006:1,2009-06-06T20:00:00Z,27.8217,-97.2040,0.0,5.9,130.0,8.2,'11111222,11111222,11111222' 
TCOON,ioos:station:TCOON:006:1,2009-06-06T21:00:00Z,27.8217,-97.2040,0.0,4.4,132.0,6.6,'11111222,11111222,11111222' 
TCOON,ioos:station:TCOON:006:1,2009-06-06T22:00:00Z,27.8217,-97.2040,0.0,4.6,132.0,6.1,'11111222,11111222,11111222' 
TCOON,ioos:station:TCOON:006:1,2009-06-06T23:00:00Z,27.8217,-97.2040,0.0,3.9,134.0,6.9,'11111222,11111222,11111222' 
TCOON,ioos:station:TCOON:006:1,2009-06-07T00:00:00Z,27.8217,-97.2040,0.0,4.9,123.0,6.9,'11111222,11111222,11111222' 
TCOON,ioos:station:TCOON:006:1,2009-06-07T01:00:00Z,27.8217,-97.2040,0.0,5.0,115.0,6.5,'11111222,11111222,11111222' 
TCOON,ioos:station:TCOON:006:1,2009-06-07T02:00:00Z,27.8217,-97.2040,0.0,5.8,124.0,8.2,'11111222,11111222,11111222' 
TCOON,ioos:station:TCOON:006:1,2009-06-07T03:00:00Z,27.8217,-97.2040,0.0,5.7,139.0,7.9,'11111222,11111222,11111222' 
TCOON,ioos:station:TCOON:006:1,2009-06-07T04:00:00Z,27.8217,-97.2040,0.0,5.5,138.0,7.4,'11111222,11111222,11111222' 
TCOON,ioos:station:TCOON:006:1,2009-06-07T05:00:00Z,27.8217,-97.2040,0.0,5.2,140.0,6.8,'11111222,11111222,11111222' 
TCOON,ioos:station:TCOON:006:1,2009-06-07T06:00:00Z,27.8217,-97.2040,0.0,5.3,141.0,6.5,'11111222,11111222,11111222' 
TCOON,ioos:station:TCOON:006:1,2009-06-07T07:00:00Z,27.8217,-97.2040,0.0,5.0,140.0,7.5,'11111222,11111222,11111222' 
TCOON,ioos:station:TCOON:006:1,2009-06-07T08:00:00Z,27.8217,-97.2040,0.0,5.4,141.0,7.1,'11111222,11111222,11111222' 
TCOON,ioos:station:TCOON:006:1,2009-06-07T09:00:00Z,27.8217,-97.2040,0.0,5.2,136.0,8.5,'11111222,11111222,11111222' 
TCOON,ioos:station:TCOON:006:1,2009-06-07T10:00:00Z,27.8217,-97.2040,0.0,5.9,135.0,8.2,'11111222,11111222,11111222' 
TCOON,ioos:station:TCOON:006:1,2009-06-07T11:00:00Z,27.8217,-97.2040,0.0,5.4,137.0,7.4,'11111222,11111222,11111222' 
TCOON,ioos:station:TCOON:006:1,2009-06-07T12:00:00Z,27.8217,-97.2040,0.0,5.7,139.0,8.5,'11111222,11111222,11111222' 
TCOON,ioos:station:TCOON:006:1,2009-06-07T13:00:00Z,27.8217,-97.2040,0.0,5.7,152.0,8.0,'11111222,11111222,11111222' 
TCOON,ioos:station:TCOON:006:1,2009-06-07T14:00:00Z,27.8217,-97.2040,0.0,5.7,151.0,7.6,'11111222,11111222,11111222' 
TCOON,ioos:station:TCOON:006:1,2009-06-07T15:00:00Z,27.8217,-97.2040,0.0,6.4,158.0,8.6,'11111222,11111222,11111222' 
TCOON,ioos:station:TCOON:006:1,2009-06-07T16:00:00Z,27.8217,-97.2040,0.0,5.7,149.0,7.6,'11111222,11111222,11111222' 
TCOON,ioos:station:TCOON:006:1,2009-06-07T17:00:00Z,27.8217,-97.2040,0.0,6.6,152.0,8.1,'11111222,11111222,11111222' 
TCOON,ioos:station:TCOON:006:1,2009-06-07T18:00:00Z,27.8217,-97.2040,0.0,6.4,126.0,8.0,'11111222,11111222,11111222' 
TCOON,ioos:station:TCOON:006:1,2009-06-07T19:00:00Z,27.8217,-97.2040,0.0,6.1,138.0,8.4,'11111222,11111222,11111222' 
TCOON,ioos:station:TCOON:006:1,2009-06-07T20:00:00Z,27.8217,-97.2040,0.0,7.1,141.0,10.2,'11111222,11111222,11111222' 
TCOON,ioos:station:TCOON:006:1,2009-06-07T21:00:00Z,27.8217,-97.2040,0.0,7.5,123.0,9.1,'11111222,11111222,11111222' 
TCOON,ioos:station:TCOON:006:1,2009-06-07T22:00:00Z,27.8217,-97.2040,0.0,8.7,125.0,10.7,'11111222,11111222,11111222' 
TCOON,ioos:station:TCOON:006:1,2009-06-07T23:00:00Z,27.8217,-97.2040,0.0,6.2,113.0,9.5,'11111222,11111222,11111222' 
TCOON,ioos:station:TCOON:006:1,2009-06-08T00:00:00Z,27.8217,-97.2040,0.0,7.7,120.0,9.4,'11111222,11111222,11111222' 
TCOON,ioos:station:TCOON:006:1,2009-06-08T01:00:00Z,27.8217,-97.2040,0.0,8.2,123.0,9.9,'11111222,11111222,11111222' 
TCOON,ioos:station:TCOON:006:1,2009-06-08T02:00:00Z,27.8217,-97.2040,0.0,7.8,125.0,9.9,'11111222,11111222,11111222' 
TCOON,ioos:station:TCOON:006:1,2009-06-08T03:00:00Z,27.8217,-97.2040,0.0,6.3,136.0,8.8,'11111222,11111222,11111222' 
TCOON,ioos:station:TCOON:006:1,2009-06-08T04:00:00Z,27.8217,-97.2040,0.0,6.3,133.0,8.3,'11111222,11111222,11111222' 
TCOON,ioos:station:TCOON:006:1,2009-06-08T05:00:00Z,27.8217,-97.2040,0.0,6.6,137.0,9.3,'11111222,11111222,11111222' 
TCOON,ioos:station:TCOON:006:1,2009-06-08T06:00:00Z,27.8217,-97.2040,0.0,6.8,148.0,9.6,'11111222,11111222,11111222' 
TCOON,ioos:station:TCOON:006:1,2009-06-08T07:00:00Z,27.8217,-97.2040,0.0,6.7,145.0,9.4,'11111222,11111222,11111222' 
TCOON,ioos:station:TCOON:006:1,2009-06-08T08:00:00Z,27.8217,-97.2040,0.0,7.7,148.0,9.5,'11111222,11111222,11111222' 
TCOON,ioos:station:TCOON:006:1,2009-06-08T09:00:00Z,27.8217,-97.2040,0.0,7.7,144.0,8.7,'11111222,11111222,11111222' 
TCOON,ioos:station:TCOON:006:1,2009-06-08T10:00:00Z,27.8217,-97.2040,0.0,5.6,139.0,8.4,'11111222,11111222,11111222' 
TCOON,ioos:station:TCOON:006:1,2009-06-08T11:00:00Z,27.8217,-97.2040,0.0,6.2,156.0,8.1,'11111222,11111222,11111222' 
TCOON,ioos:station:TCOON:006:1,2009-06-08T12:00:00Z,27.8217,-97.2040,0.0,7.0,145.0,9.3,'11111222,11111222,11111222' 
TCOON,ioos:station:TCOON:006:1,2009-06-08T13:00:00Z,27.8217,-97.2040,0.0,6.7,150.0,9.3,'11111222,11111222,11111222' 
TCOON,ioos:station:TCOON:006:1,2009-06-08T14:00:00Z,27.8217,-97.2040,0.0,8.1,147.0,9.2,'11111222,11111222,11111222' 
TCOON,ioos:station:TCOON:006:1,2009-06-08T15:00:00Z,27.8217,-97.2040,0.0,7.8,156.0,9.3,'11111222,11111222,11111222' 
TCOON,ioos:station:TCOON:006:1,2009-06-08T16:00:00Z,27.8217,-97.2040,0.0,6.3,146.0,8.4,'11111222,11111222,11111222' 
TCOON,ioos:station:TCOON:006:1,2009-06-08T17:00:00Z,27.8217,-97.2040,0.0,5.7,154.0,6.9,'11111222,11111222,11111222' 
TCOON,ioos:station:TCOON:006:1,2009-06-08T18:00:00Z,27.8217,-97.2040,0.0,4.5,122.0,8.2,'11111222,11111222,11111222' 
TCOON,ioos:station:TCOON:006:1,2009-06-08T19:00:00Z,27.8217,-97.2040,0.0,4.6,125.0,8.0,'11111222,11111222,11111222' 
TCOON,ioos:station:TCOON:006:1,2009-06-08T20:00:00Z,27.8217,-97.2040,0.0,4.5,113.0,6.4,'11111222,11111222,11111222' 
TCOON,ioos:station:TCOON:006:1,2009-06-08T21:00:00Z,27.8217,-97.2040,0.0,5.1,113.0,7.5,'11111222,11111222,11111222' 
TCOON,ioos:station:TCOON:006:1,2009-06-08T22:00:00Z,27.8217,-97.2040,0.0,4.7,103.0,7.2,'11111222,11111222,11111222' 
TCOON,ioos:station:TCOON:006:1,2009-06-08T23:00:00Z,27.8217,-97.2040,0.0,5.4,116.0,7.7,'11111222,11111222,11111222' 
TCOON,ioos:station:TCOON:006:1,2009-06-09T00:00:00Z,27.8217,-97.2040,0.0,4.8,114.0,7.2,'11111222,11111222,11111222' 
TCOON,ioos:station:TCOON:006:1,2009-06-09T01:00:00Z,27.8217,-97.2040,0.0,3.7,102.0,7.5,'11111222,11111222,11111222' 
TCOON,ioos:station:TCOON:006:1,2009-06-09T02:00:00Z,27.8217,-97.2040,0.0,4.7,113.0,7.2,'11111222,11111222,11111222' 
TCOON,ioos:station:TCOON:006:1,2009-06-09T03:00:00Z,27.8217,-97.2040,0.0,4.1,107.0,8.5,'11111222,11111222,11111222' 
TCOON,ioos:station:TCOON:006:1,2009-06-09T04:00:00Z,27.8217,-97.2040,0.0,4.5,111.0,8.2,'11111222,11111222,11111222' 
TCOON,ioos:station:TCOON:006:1,2009-06-09T05:00:00Z,27.8217,-97.2040,0.0,4.0,118.0,7.0,'11111222,11111222,11111222' 
TCOON,ioos:station:TCOON:006:1,2009-06-09T06:00:00Z,27.8217,-97.2040,0.0,5.2,132.0,7.2,'11111222,11111222,11111222' 
TCOON,ioos:station:TCOON:006:1,2009-06-09T07:00:00Z,27.8217,-97.2040,0.0,7.6,144.0,9.0,'11111222,11111222,11111222' 
TCOON,ioos:station:TCOON:006:1,2009-06-09T08:00:00Z,27.8217,-97.2040,0.0,6.7,144.0,8.3,'11111222,11111222,11111222' 
TCOON,ioos:station:TCOON:006:1,2009-06-09T09:00:00Z,27.8217,-97.2040,0.0,5.5,145.0,6.6,'11111222,11111222,11111222' 
TCOON,ioos:station:TCOON:006:1,2009-06-09T10:00:00Z,27.8217,-97.2040,0.0,5.4,147.0,7.0,'11111222,11111222,11111222' 
TCOON,ioos:station:TCOON:006:1,2009-06-09T11:00:00Z,27.8217,-97.2040,0.0,5.3,149.0,6.9,'11111222,11111222,11111222' 
TCOON,ioos:station:TCOON:006:1,2009-06-09T12:00:00Z,27.8217,-97.2040,0.0,4.0,137.0,6.3,'11111222,11111222,11111222' 